CZ-7A R/B

基本信息
目录编号:
58205
目录名称:
CZ-7A R/B
国际标识:
2023-169B
轨道中心:
EARTH
物体状态:
已陨落(2024-01-14)
发射日期:
2023-11-03 UTC
国别:
中国 (CN)
轨道信息
数据来源: 国际轨道数据
星历时间: 2024-01-14T16:44:24+0800
半长轴: 7058.613km
偏心率: 0.0831274
轨道倾角: 16.580°
近地点辐角: 313.910°
升交点赤经: 217.119°
平近点角: 175.891°
近地点: 93.713km
远地点: 1267.243km
周期: 98.365分钟
每日圈数: 14.639417
详细信息
发射场:
WSC
轨道高度:
LEO
数据来源:
AOE Integration Group
参考系:
TEME
时间系统:
UTC
历元类型:
SGP4
2D轨道图
3D轨道图
轨道高度分析图
轨道倾角分析图
轨道综合分析图
查看轨道综合分析图